Salt Lake City, UT

6:28 PM MDT on June 25, 2017 (GMT -0600)
Salt Lake City International

Weather History for KSLC - May, 2013

Change the Weather History Date:

Thursday, May 2, 2013

  Actual Average Record
Temperature  
Mean Temperature 48 °F 55 °F  
Max Temperature 63 °F 67 °F 91 °F (1947)
Min Temperature 33 °F 44 °F 25 °F (1899)
Degree Days  
Heating Degree Days 17 10  
Month to date heating degree days 37 20  
Since 1 July heating degree days 5355 5376  
Cooling Degree Days 0 1  
Month to date cooling degree days 0 1  
Year to date cooling degree days 0 5  
Moisture  
Dew Point 21 °F    
Average Humidity 36    
Maximum Humidity 52    
Minimum Humidity 19    
Precipitation  
Precipitation 0.00 in 0.08 in 1.04 in (1905)
Month to date precipitation T 0.15  
Year to date precipitation 4.86 6.43  
Snow  
Snow 0.00 in 0.10 in 4.90 in (1964)
Month to date snowfall T 0.1  
Since 1 July snowfall 69.9 56.0  
Snow Depth 0.00 in    
Sea Level Pressure  
Sea Level Pressure 30.50 in    
Wind  
Wind Speed 4 mph (WNW)    
Max Wind Speed 15 mph    
Max Gust Speed 21 mph    
Visibility 10 miles    
Events      
T = Trace of Precipitation, MM = Missing Value Source: NWS Daily Summary

Daily Weather History Graph

Daily Weather History Graph

Search for Another Location

Airport or City:

Trip Planner

Search our weather history database for the weather conditions in past years. The results will help you decide how hot, cold, wet, or windy it might be!

Date:

Astronomy

May. 02, 2013 Rise Set
Actual Time 6:24 AM MDT 8:25 PM MDT
Civil Twilight 5:54 AM MDT 8:55 PM MDT
Nautical Twilight 5:18 AM MDT 9:32 PM MDT
Astronomical Twilight 4:38 AM MDT 10:12 PM MDT
Moon 2:17 AM MDT (5/2) 1:16 PM MDT (5/2)
Length of Visible Light 15h 00m
Length of Day
14h 00m
Waning Gibbous, 47% of the Moon is Illuminated
May 2
Waning Gibbous
May 9
New
May 17
First Quarter
May 24
Full
May 31
Last Quarter

Hourly Weather History & Observations

Time (MDT) Temp. Windchill Dew Point Humidity Pressure Visibility Wind Dir Wind Speed Gust Speed Precip Events Conditions
12:53 AM 39.0 °F 34.8 °F 21.9 °F 50% 30.55 in 10.0 mi SW 5.8 mph - N/A   Clear
1:53 AM 39.0 °F 35.7 °F 19.0 °F 45% 30.56 in 10.0 mi SW 4.6 mph - N/A   Clear
2:53 AM 37.9 °F 35.5 °F 19.0 °F 47% 30.56 in 10.0 mi SSW 3.5 mph - N/A   Clear
3:53 AM 39.0 °F - 18.0 °F 43% 30.56 in 10.0 mi Calm Calm - N/A   Clear
4:53 AM 36.0 °F - 19.0 °F 50% 30.58 in 10.0 mi Calm Calm - N/A   Clear
5:53 AM 36.0 °F - 19.9 °F 52% 30.58 in 10.0 mi Calm Calm - N/A   Clear
6:53 AM 36.0 °F - 19.9 °F 52% 30.61 in 10.0 mi Calm Calm - N/A   Clear
7:53 AM 43.0 °F - 23.0 °F 45% 30.60 in 10.0 mi Calm Calm - N/A   Clear
8:53 AM 48.0 °F - 17.1 °F 29% 30.61 in 10.0 mi Calm Calm - N/A   Partly Cloudy
9:53 AM 53.1 °F - 14.0 °F 21% 30.60 in 10.0 mi Variable 3.5 mph - N/A   Partly Cloudy
10:53 AM 54.0 °F - 15.1 °F 22% 30.59 in 10.0 mi WSW 3.5 mph - N/A   Partly Cloudy
11:53 AM 57.0 °F - 16.0 °F 20% 30.57 in 10.0 mi WNW 11.5 mph - N/A   Partly Cloudy
12:53 PM 57.0 °F - 14.0 °F 18% 30.55 in 10.0 mi Variable 6.9 mph - N/A   Partly Cloudy
1:53 PM 59.0 °F - 19.0 °F 21% 30.52 in 10.0 mi WNW 10.4 mph - N/A   Partly Cloudy
2:53 PM 60.1 °F - 18.0 °F 20% 30.50 in 10.0 mi Variable 3.5 mph - N/A   Partly Cloudy
3:53 PM 62.1 °F - 19.9 °F 20% 30.46 in 10.0 mi Variable 4.6 mph - N/A   Partly Cloudy
4:53 PM 62.1 °F - 23.0 °F 22% 30.44 in 8.0 mi North 8.1 mph 17.3 mph N/A   Partly Cloudy
5:53 PM 62.1 °F - 21.9 °F 21% 30.41 in 10.0 mi North 9.2 mph - N/A   Partly Cloudy
6:53 PM 61.0 °F - 23.0 °F 23% 30.40 in 10.0 mi North 8.1 mph - N/A   Scattered Clouds
7:53 PM 57.9 °F - 25.0 °F 28% 30.35 in 10.0 mi North 9.2 mph - N/A   Mostly Cloudy
8:53 PM 55.0 °F - 28.0 °F 35% 30.35 in 10.0 mi NNW 8.1 mph - N/A   Mostly Cloudy
9:53 PM 52.0 °F - 28.9 °F 41% 30.34 in 10.0 mi NW 5.8 mph - N/A   Scattered Clouds
10:53 PM 48.9 °F - 30.9 °F 50% 30.35 in 10.0 mi WNW 4.6 mph - N/A   Partly Cloudy
11:53 PM 50.0 °F - 30.0 °F 46% 30.32 in 10.0 mi SSE 3.5 mph - N/A   Partly Cloudy